Weather WX

World > North America > United States > Minnesota

Brevator, Minnesota Regional Weather

Lat: 46.90N, Lon: 92.45W
Wx Zone: MNZ037
Warning FLW WEATHER ALERT - (More Info. Click Here) Warning
Feedback

Brevator, MN Regional Weather

Expires:201906152300;;128697
ASUS43 KMPX 152210
RWRMN 
WEATHER ROUNDUP FOR MINNESOTA
NATIONAL WEATHER SERVICE TWIN CITIES/CHANHASSEN MN
500 PM CDT SAT JUN 15 2019


NOTE: "FAIR" INDICATES FEW OR NO CLOUDS BELOW 12,000 FEET WITH NO
SIGNIFICANT WEATHER AND/OR OBSTRUCTIONS TO VISIBILITY. N/A MEANS
CURRENT SKY AND/OR WEATHER CONDITIONS ARE NOT AVAILABLE.


MNZ037-044-045-052-053-152300-
   East Central Minnesota   
  
CITY           SKY/WX    TMP DP  RH WIND       PRES   REMARKS
PRINCETON      FAIR      72  48  43 NE8       29.79R                  
MORA           FAIR      64  41  42 NE5       29.81F                  
CAMBRIDGE      FAIR      73  52  46 E6        29.78R                  
RUSH CITY      FAIR      68  49  49 NE8       29.79S                  
MOOSE LAKE     FAIR      61  41  48 NE9       29.83S                  
HINCKLEY       FAIR      68  43  40 NE9       29.80F                  
CLOQUET        FAIR      61  27  27 E14G22    29.87S                  
MCGREGOR       FAIR      63  43  48 E8        29.85S                  
$$

SKY/WX - Weather  TMP - Temperature  DP - Dew Point  RH - Relative Humidity
WIND - Wind Direction/Speed PRES - Barometric Pressure VSB - Visibility
WCI - Wind Chill Index E13G22 Wind - East Wind 13 mph/Gusts of 22 mph